Location: Jackson
(42.2460°N, 84.4010°W)
Time: 18:18:48
(UTC-04:00)

Courier 1B Rocket - Pass Details

Date: 11 February 2026
Orbit: 920 x 1201 km, 28.2° (Epoch: 12 March)

Event Time Altitude Azimuth Distance (km) Brightness Sun altitude
Rises 00:20:41 0° 244° (WSW) 3,778 - -61.0°
Reaches altitude 10° 00:23:46 10° 232° (SW) 2,874 - -61.1°
Maximum altitude 00:29:27 26° 178° (S) 2,000 - -61.4°
Drops below altitude 10° 00:35:27 10° 125° (SE) 3,037 - -61.5°
Sets 00:38:48 0° 113° (ESE) 4,034 - -61.6°
